Location: Ełk
(53.8214°N, 22.3622°E)
Time: 12:33:50
(UTC+01:00)

ISS - Pass Details

Date: 25 January 2019
Orbit: 403 x 411 km, 51.6° (Epoch: 21 February)

Event Time Altitude Azimuth Distance (km) Brightness Sun altitude
Rises 18:29:31 0° 231° (SW) 2,332 0.9 -22.0°
Reaches altitude 10° 18:31:43 10° 221° (SW) 1,475 -0.5 -22.3°
Enters shadow 18:33:24 23° 199° (SSW) 929 -1.9 -22.6°
